Location: Mascot Post Office (historical)
(40.2645°N, 99.5462°W)
Time: 01:13:51
(UTC+00:00)

NOSS 3-2 (A) - Pass Details

Date: 14 July 2020
Orbit: 798 x 1410 km, 63.4° (Epoch: 12 August)

Event Time Altitude Azimuth Distance (km) Brightness Sun altitude
Exits shadow 09:31:03 19° 180° (S) 1,902 4.6 -17.0°
Maximum altitude 09:34:48 45° 115° (ESE) 1,171 4.0 -16.5°
Drops below altitude 10° 09:40:38 10° 45° (NE) 2,695 7.2 -15.8°
Sets 09:43:28 0° 40° (NE) 3,740 8.5 -15.4°
